Location: Katowice
(50.2611°N, 19.0242°E)
Time: 20:21:06
(UTC+02:00)

Tiros 1 - Visible Passes

Search period start: 25 August 2019 00:00
Search period end: 04 September 2019 00:00
Orbit: 631 x 664 km, 48.4° (Epoch: 25 August)

Date Brightness Start Highest point End Pass type
(mag) Time Alt. Az. Time Alt. Az. Time Alt. Az.
25 Aug 7.1 02:43:32 66° SE 02:43:32 66° SE 02:47:46 10° E visible
25 Aug 7.4 04:21:13 14° W 04:25:05 48° SSW 04:29:36 10° SE visible
26 Aug 9.5 01:31:07 13° E 01:31:07 13° E 01:31:42 10° E visible
26 Aug 7.0 03:08:48 63° SW 03:09:08 65° S 03:13:47 10° ESE visible
26 Aug 7.9 04:46:48 10° W 04:50:55 31° SSW 04:55:04 10° SSE visible
27 Aug 9.2 01:56:36 17° E 01:56:36 17° E 01:57:46 10° E visible
27 Aug 7.3 03:34:19 44° SW 03:35:06 49° SSW 03:39:38 10° SE visible
27 Aug 8.6 05:13:23 10° W 05:16:37 19° SW 05:19:51 10° S visible
28 Aug 9.1 02:22:26 19° ESE 02:22:26 19° ESE 02:23:47 10° ESE visible
28 Aug 7.8 04:00:11 31° SW 04:00:57 33° SSW 04:05:08 10° SE visible
29 Aug 9.2 02:48:42 16° SE 02:48:42 16° SE 02:49:39 10° ESE visible
29 Aug 8.4 04:26:28 20° SW 04:26:40 20° SW 04:30:02 10° S visible
30 Aug 8.8 20:47:12 10° S 20:49:26 15° SE 20:49:26 15° SE visible
30 Aug 9.5 22:26:49 10° SW 22:27:11 12° SW 22:27:11 12° SW visible
31 Aug 8.0 21:11:35 10° SSW 21:15:26 26° SSE 21:15:29 26° SSE visible
31 Aug 9.4 22:52:34 10° WSW 22:53:12 14° WSW 22:53:12 14° WSW visible
01 Sep 8.9 19:57:29 10° S 19:59:52 14° SE 20:02:16 10° ESE visible
01 Sep 7.4 21:36:52 10° SW 21:41:08 42° SSE 21:41:08 42° SSE visible
01 Sep 9.7 23:18:32 10° W 23:18:49 12° W 23:18:49 12° W visible
02 Sep 8.2 20:21:42 10° SSW 20:25:29 25° SSE 20:28:48 12° E visible
02 Sep 7.3 22:02:36 10° WSW 22:06:29 53° SSW 22:06:29 53° SSW visible
03 Sep 7.6 20:46:55 10° SW 20:51:15 40° SSE 20:53:56 20° E visible
03 Sep 7.9 22:28:33 10° WSW 22:31:37 41° WSW 22:31:37 41° WSW visible
